Погода в Понинке

Украина / Хмельницкая область     50°11′06″N   27°33′49″E
темп.,
°C
ветер,
м/с
пор.,
м/с
влажн.,
%
обл.,
%
осадки,
мм/ч
давл.,
гПа
погр.,
м
26 июля, пн
пн2600:00+18юв356967 0.0 101992
03:00+19юв3765100 0.0 1019160
06:00+17юв377124 0.0 1019119
09:00+22юв59605 0.0 1019372
12:00+27ююв67475 0.0 10191260
15:00+28ююв664263 0.0 10182111
18:00+27ююв464926 0.0 10171641
21:00+21юв4107253 0.0 1017211
27 июля, вт
вт2700:00+19юв410717 0.0 1018188
03:00+18юв4107029 0.0 1018181
06:00+18ююв413690 0.0 1017261
09:00+22ю5116665 0.3 1017453
12:00+23ю5106999 1.9 1017548
15:00+29ю675144 2.1 10151112
18:00+29ю475371 0.0 10141107
21:00+23ююз2473100 0.3 101466
28 июля, ср
ср2800:00+20ююз51288100 0.9 1015231
03:00+19зюз36916 2.6 1014121
06:00+18сз37974 0.1 1014164
09:00+22сз348277 0.2 1015423
12:00+25сз346194 0.0 10151033
15:00+28сз34506 0.0 10141454
18:00+28сз33495 0.0 10141619
21:00+23зсз33675 0.0 101426
29 июля, чт
чт2900:00+20ю117368 0.0 101411
03:00+19ююв1279100 0.1 101312
06:00+19ююв228479 0.1 101325
09:00+22ю247992 0.7 1013223
12:00+29юз345310 0.0 10121236
15:00+31зюз564737 0.0 10112028
18:00+28з68611 0.1 10091163
21:00+23зсз51075100 0.4 1012354
30 июля, пт
пт3000:00+19з3892100 0.0 1012174
03:00+18зсз3697100 0.0 1012156
06:00+17зсз36978 0.0 1012150
09:00+22сз34755 0.0 1012459
12:00+26зсз23580 0.0 10121168
15:00+29зсз23410 0.0 10101634
18:00+30зсз13410 0.0 10091492
21:00+23юв33630 0.0 100826